QPF
0.00 0.00 0.00 0.01 0.02 0.01 0.01 0.01 0.01 0.02 0.02 0.03 0.04 0.04 0.04 0.04 0.04 0.04 0.04 0.05 0.05 0.05 0.05 0.05 0.07 0.08 0.06 0.05 0.05 0.04 0.03 0.03 0.03 0.03 0.03 0.03 0.03 0.03 0.06 0.07 0.03 0.02 0.04
0.00 0.00 0.00 0.01 0.01 0.02 0.02 0.01 0.01 0.02 0.03 0.03 0.03 0.03 0.04 0.03 0.03 0.04 0.04 0.05 0.05 0.05 0.06 0.06 0.06 0.06 0.06 0.06 0.06 0.06 0.05 0.04 0.03 0.03 0.03 0.04 0.04 0.04 0.05 0.07 0.05 0.03 0.04
0.00 0.00 0.00 0.00 0.01 0.01 0.02 0.02 0.01 0.02 0.02 0.03 0.03 0.04 0.04 0.03 0.03 0.02 0.02 0.04 0.05 0.05 0.05 0.06 0.07 0.07 0.06 0.05 0.05 0.05 0.05 0.05 0.04 0.03 0.03 0.03 0.04 0.04 0.05 0.06 0.06 0.04 0.04
0.00 0.00 0.00 0.00 0.00 0.01 0.01 0.02 0.02 0.02 0.02 0.03 0.03 0.04 0.05 0.04 0.03 0.03 0.03 0.02 0.03 0.05 0.07 0.07 0.07 0.06 0.08 0.07 0.05 0.05 0.05 0.05 0.04 0.03 0.03 0.02 0.03 0.04 0.05 0.05 0.06 0.05 0.04
0.00 0.00 0.00 0.00 0.00 0.00 0.00 0.01 0.01 0.02 0.02 0.03 0.03 0.03 0.05 0.05 0.05 0.04 0.03 0.03 0.03 0.04 0.06 0.07 0.07 0.07 0.07 0.07 0.07 0.07 0.05 0.04 0.04 0.04 0.03 0.03 0.02 0.03 0.04 0.05 0.05 0.05 0.04
0.00 0.00 0.00 0.00 0.00 0.00 0.00 0.00 0.01 0.01 0.01 0.01 0.02 0.02 0.03 0.04 0.04 0.04 0.05 0.04 0.03 0.03 0.04 0.05 0.07 0.08 0.08 0.08 0.07 0.08 0.07 0.06 0.05 0.04 0.04 0.03 0.03 0.03 0.03 0.04 0.04 0.05 0.05
0.00 0.00 0.00 0.00 0.00 0.00 0.00 0.00 0.00 0.01 0.01 0.01 0.01 0.01 0.01 0.02 0.03 0.03 0.04 0.05 0.05 0.05 0.04 0.04 0.05 0.06 0.08 0.10 0.09 0.09 0.08 0.07 0.06 0.05 0.05 0.04 0.03 0.03 0.04 0.04 0.03 0.04 0.05
0.01 0.00 0.00 0.00 0.00 0.00 0.00 0.00 0.00 0.00 0.01 0.01 0.00 0.00 0.00 0.01 0.01 0.02 0.02 0.03 0.03 0.04 0.05 0.05 0.05 0.05 0.06 0.07 0.09 0.09 0.08 0.07 0.06 0.05 0.05 0.05 0.04 0.04 0.05 0.06 0.05 0.04 0.05
0.01 0.01 0.00 0.00 0.00 0.00 0.00 0.00 0.00 0.00 0.00 0.01 0.01 0.00 0.00 0.00 0.00 0.01 0.01 0.02 0.02 0.03 0.04 0.05 0.06 0.06 0.06 0.07 0.08 0.09 0.09 0.08 0.06 0.05 0.05 0.04 0.04 0.03 0.04 0.06 0.06 0.04 0.04
0.01 0.01 0.00 0.00 0.00 0.00 0.00 0.00 0.00 0.00 0.00 0.00 0.01 0.01 0.00 0.00 0.00 0.00 0.00 0.01 0.01 0.01 0.02 0.03 0.04 0.05 0.07 0.07 0.07 0.08 0.08 0.09 0.08 0.07 0.06 0.05 0.04 0.03 0.03 0.04 0.06 0.05 0.03
0.01 0.01 0.01 0.01 0.00 0.00 0.00 0.00 0.00 0.00 0.00 0.00 0.01 0.01 0.00 0.00 0.00 0.00 0.01 0.01 0.01 0.01 0.02 0.02 0.03 0.04 0.05 0.06 0.05 0.05 0.06 0.06 0.06 0.07 0.06 0.05 0.04 0.03 0.03 0.03 0.05 0.06 0.05
0.01 0.01 0.01 0.01 0.01 0.01 0.00 0.00 0.00 0.00 0.00 0.01 0.01 0.01 0.01 0.01 0.01 0.01 0.01 0.02 0.02 0.02 0.02 0.02 0.03 0.04 0.04 0.05 0.04 0.04 0.05 0.04 0.04 0.05 0.06 0.05 0.04 0.04 0.04 0.04 0.04 0.05 0.05
0.00 0.00 0.01 0.01 0.01 0.01 0.01 0.01 0.01 0.01 0.01 0.01 0.01 0.01 0.01 0.01 0.01 0.02 0.02 0.02 0.02 0.02 0.02 0.02 0.03 0.04 0.04 0.04 0.04 0.04 0.05 0.04 0.04 0.04 0.05 0.05 0.05 0.04 0.04 0.04 0.04 0.04 0.05
0.00 0.00 0.00 0.01 0.01 0.01 0.01 0.01 0.01 0.00 0.00 0.01 0.01 0.01 0.01 0.01 0.02 0.02 0.02 0.02 0.03 0.02 0.02 0.03 0.03 0.03 0.04 0.04 0.04 0.04 0.04 0.03 0.03 0.03 0.04 0.04 0.04 0.04 0.04 0.04 0.04 0.04 0.05
0.01 0.01 0.00 0.00 0.00 0.00 0.00 0.00 0.00 0.00 0.00 0.01 0.01 0.01 0.01 0.01 0.01 0.02 0.02 0.02 0.02 0.02 0.02 0.02 0.02 0.02 0.03 0.03 0.03 0.03 0.03 0.03 0.02 0.02 0.03 0.03 0.03 0.03 0.03 0.04 0.04 0.05 0.06
0.01 0.01 0.00 0.00 0.00 0.00 0.00 0.00 0.00 0.00 0.00 0.00 0.01 0.01 0.01 0.01 0.01 0.01 0.01 0.01 0.01 0.01 0.01 0.01 0.01 0.02 0.02 0.03 0.03 0.03 0.02 0.02 0.02 0.02 0.02 0.03 0.03 0.03 0.03 0.03 0.03 0.03 0.04
0.01 0.01 0.00 0.00 0.00 0.00 0.00 0.00 0.00 0.00 0.00 0.00 0.00 0.00 0.00 0.00 0.01 0.01 0.01 0.01 0.01 0.01 0.01 0.01 0.01 0.01 0.01 0.02 0.02 0.02 0.02 0.02 0.02 0.02 0.02 0.02 0.02 0.02 0.02 0.02 0.02 0.02 0.02
0.01 0.01 0.00 0.00 0.00 0.00 0.00 0.00 0.00 0.00 0.00 0.00 0.00 0.00 0.00 0.00 0.00 0.00 0.00 0.00 0.00 0.00 0.00 0.00 0.01 0.01 0.01 0.01 0.01 0.02 0.01 0.01 0.01 0.02 0.02 0.02 0.02 0.02 0.03 0.03 0.02 0.02 0.02
0.00 0.00 0.00 0.00 0.00 0.00 0.00 0.00 0.00 0.00 0.00 0.00 0.00 0.00 0.00 0.00 0.00 0.00 0.00 0.00 0.00 0.00 0.00 0.00 0.00 0.00 0.00 0.01 0.01 0.01 0.01 0.01 0.01 0.02 0.02 0.02 0.02 0.02 0.03 0.03 0.03 0.03 0.02
0.00 0.00 0.00 0.00 0.00 0.00 0.00 0.00 0.00 0.00 0.00 0.00 0.00 0.00 0.00 0.00 0.00 0.00 0.00 0.00 0.00 0.00 0.00 0.00 0.00 0.00 0.00 0.01 0.01 0.01 0.01 0.01 0.01 0.02 0.02 0.03 0.03 0.03 0.03 0.03 0.03 0.03 0.03
0.00 0.00 0.00 0.00 0.00 0.00 0.00 0.00 0.00 0.00 0.00 0.00 0.00 0.00 0.00 0.00 0.00 0.00 0.00 0.00 0.00 0.00 0.00 0.00 0.00 0.00 0.00 0.00 0.01 0.01 0.02 0.02 0.02 0.02 0.02 0.03 0.04 0.04 0.04 0.04 0.04 0.04 0.04
0.00 0.00 0.00 0.00 0.01 0.01 0.01 0.01 0.01 0.01 0.00 0.00 0.00 0.00 0.00 0.00 0.00 0.00 0.00 0.00 0.00 0.00 0.00 0.00 0.00 0.00 0.00 0.00 0.00 0.01 0.01 0.02 0.02 0.02 0.02 0.03 0.03 0.03 0.04 0.04 0.05 0.05 0.05
0.01 0.01 0.01 0.01 0.01 0.01 0.01 0.01 0.01 0.01 0.01 0.01 0.00 0.00 0.00 0.00 0.00 0.00 0.00 0.00 0.00 0.00 0.00 0.00 0.00 0.00 0.00 0.00 0.00 0.01 0.01 0.01 0.01 0.02 0.02 0.02 0.03 0.03 0.04 0.04 0.04 0.04 0.04
0.01 0.01 0.01 0.01 0.01 0.01 0.01 0.01 0.01 0.01 0.01 0.01 0.00 0.00 0.00 0.00 0.00 0.00 0.00 0.00 0.00 0.00 0.00 0.00 0.00 0.00 0.00 0.00 0.00 0.01 0.01 0.01 0.01 0.01 0.02 0.02 0.02 0.02 0.02 0.03 0.03 0.03 0.04
0.01 0.01 0.01 0.01 0.01 0.01 0.01 0.01 0.01 0.01 0.01 0.01 0.01 0.00 0.00 0.00 0.00 0.00 0.00 0.00 0.00 0.00 0.01 0.01 0.01 0.01 0.01 0.01 0.01 0.02 0.02 0.01 0.01 0.01 0.01 0.01 0.01 0.01 0.01 0.02 0.02 0.02 0.03
0.01 0.01 0.01 0.01 0.01 0.01 0.01 0.01 0.01 0.01 0.01 0.01 0.00 0.00 0.00 0.00 0.00 0.00 0.00 0.00 0.00 0.00 0.00 0.01 0.01 0.01 0.01 0.01 0.02 0.02 0.02 0.02 0.02 0.02 0.02 0.01 0.01 0.01 0.01 0.01 0.01 0.01 0.01
MSLP
1024.50 1024.95 1025.26 1025.44 1025.54 1025.56 1025.52 1025.44 1025.33 1025.21 1025.09 1025.02 1024.99 1025.04 1025.17 1025.36 1025.58 1025.79 1025.95 1026.02 1025.97 1025.81 1025.54 1025.19 1024.80 1024.40 1024.02 1023.66 1023.34 1023.04 1022.76 1022.46 1022.16 1021.84 1021.52 1021.23 1020.97 1020.77 1020.64 1020.58 1020.56 1020.59 1020.63
1024.54 1025.05 1025.41 1025.64 1025.77 1025.82 1025.81 1025.75 1025.66 1025.55 1025.44 1025.37 1025.34 1025.39 1025.51 1025.69 1025.91 1026.13 1026.31 1026.42 1026.43 1026.33 1026.13 1025.85 1025.52 1025.16 1024.81 1024.47 1024.16 1023.85 1023.54 1023.22 1022.88 1022.53 1022.17 1021.82 1021.51 1021.25 1021.05 1020.92 1020.84 1020.82 1020.83
1024.53 1025.08 1025.49 1025.76 1025.93 1026.02 1026.05 1026.03 1025.98 1025.91 1025.83 1025.78 1025.76 1025.80 1025.91 1026.07 1026.27 1026.48 1026.66 1026.79 1026.84 1026.79 1026.66 1026.45 1026.18 1025.89 1025.59 1025.28 1024.98 1024.68 1024.38 1024.05 1023.69 1023.32 1022.93 1022.54 1022.18 1021.85 1021.58 1021.36 1021.21 1021.11 1021.06
1024.48 1025.08 1025.52 1025.83 1026.04 1026.17 1026.25 1026.29 1026.30 1026.28 1026.25 1026.23 1026.23 1026.27 1026.36 1026.48 1026.65 1026.83 1027.00 1027.12 1027.19 1027.19 1027.11 1026.96 1026.76 1026.53 1026.28 1026.02 1025.76 1025.48 1025.19 1024.88 1024.53 1024.16 1023.76 1023.35 1022.95 1022.56 1022.22 1021.92 1021.68 1021.49 1021.37
1024.44 1025.06 1025.53 1025.87 1026.12 1026.31 1026.44 1026.55 1026.62 1026.66 1026.69 1026.71 1026.73 1026.76 1026.83 1026.92 1027.05 1027.18 1027.32 1027.43 1027.50 1027.52 1027.48 1027.38 1027.23 1027.05 1026.85 1026.64 1026.42 1026.18 1025.92 1025.64 1025.32 1024.97 1024.59 1024.18 1023.76 1023.34 1022.94 1022.57 1022.24 1021.96 1021.75
1024.42 1025.07 1025.56 1025.94 1026.23 1026.45 1026.64 1026.80 1026.93 1027.04 1027.12 1027.17 1027.21 1027.25 1027.29 1027.35 1027.44 1027.53 1027.62 1027.71 1027.77 1027.79 1027.77 1027.70 1027.59 1027.45 1027.29 1027.11 1026.92 1026.72 1026.51 1026.27 1025.99 1025.69 1025.34 1024.96 1024.55 1024.12 1023.68 1023.26 1022.86 1022.50 1022.20
1024.46 1025.13 1025.66 1026.06 1026.38 1026.64 1026.87 1027.07 1027.25 1027.40 1027.52 1027.60 1027.66 1027.69 1027.72 1027.75 1027.79 1027.85 1027.91 1027.96 1028.01 1028.02 1028.01 1027.95 1027.86 1027.74 1027.60 1027.44 1027.28 1027.11 1026.93 1026.73 1026.51 1026.26 1025.96 1025.63 1025.25 1024.84 1024.40 1023.94 1023.49 1023.07 1022.70
1024.57 1025.27 1025.83 1026.25 1026.60 1026.88 1027.14 1027.37 1027.57 1027.75 1027.89 1027.98 1028.04 1028.07 1028.08 1028.09 1028.11 1028.13 1028.17 1028.20 1028.23 1028.24 1028.22 1028.17 1028.08 1027.96 1027.82 1027.67 1027.51 1027.34 1027.19 1027.02 1026.85 1026.65 1026.42 1026.14 1025.82 1025.44 1025.02 1024.56 1024.09 1023.63 1023.20
1024.73 1025.48 1026.06 1026.52 1026.89 1027.20 1027.47 1027.71 1027.92 1028.10 1028.23 1028.33 1028.38 1028.39 1028.39 1028.38 1028.38 1028.39 1028.41 1028.43 1028.45 1028.46 1028.43 1028.37 1028.28 1028.14 1027.98 1027.81 1027.64 1027.47 1027.31 1027.16 1027.02 1026.87 1026.69 1026.47 1026.21 1025.89 1025.51 1025.08 1024.61 1024.14 1023.68
1024.93 1025.72 1026.35 1026.85 1027.25 1027.58 1027.87 1028.11 1028.31 1028.47 1028.59 1028.66 1028.69 1028.68 1028.66 1028.63 1028.62 1028.62 1028.64 1028.66 1028.68 1028.69 1028.66 1028.59 1028.47 1028.32 1028.13 1027.93 1027.72 1027.53 1027.35 1027.20 1027.06 1026.93 1026.80 1026.63 1026.42 1026.16 1025.83 1025.45 1025.01 1024.55 1024.09
1025.11 1025.95 1026.65 1027.21 1027.66 1028.02 1028.32 1028.57 1028.76 1028.90 1028.99 1029.02 1029.01 1028.98 1028.93 1028.89 1028.86 1028.86 1028.87 1028.90 1028.92 1028.92 1028.89 1028.81 1028.68 1028.49 1028.27 1028.03 1027.78 1027.54 1027.33 1027.15 1027.00 1026.88 1026.76 1026.63 1026.47 1026.26 1025.99 1025.66 1025.27 1024.84 1024.39
1025.24 1026.15 1026.92 1027.56 1028.08 1028.50 1028.84 1029.10 1029.29 1029.40 1029.46 1029.45 1029.41 1029.33 1029.25 1029.18 1029.14 1029.12 1029.12 1029.14 1029.16 1029.15 1029.11 1029.01 1028.86 1028.65 1028.39 1028.11 1027.81 1027.53 1027.27 1027.05 1026.87 1026.73 1026.61 1026.49 1026.36 1026.19 1025.97 1025.70 1025.36 1024.98 1024.57
1025.30 1026.30 1027.16 1027.89 1028.51 1029.00 1029.39 1029.69 1029.88 1029.99 1030.02 1029.98 1029.89 1029.78 1029.66 1029.55 1029.47 1029.42 1029.40 1029.39 1029.39 1029.36 1029.30 1029.18 1029.00 1028.76 1028.47 1028.14 1027.81 1027.48 1027.17 1026.90 1026.68 1026.51 1026.36 1026.24 1026.12 1025.98 1025.80 1025.57 1025.29 1024.96 1024.60
1025.33 1026.41 1027.37 1028.22 1028.93 1029.51 1029.97 1030.31 1030.53 1030.64 1030.65 1030.59 1030.47 1030.31 1030.15 1029.99 1029.86 1029.77 1029.70 1029.65 1029.60 1029.53 1029.42 1029.27 1029.05 1028.78 1028.46 1028.10 1027.73 1027.36 1027.00 1026.69 1026.42 1026.20 1026.03 1025.88 1025.75 1025.62 1025.47 1025.28 1025.05 1024.78 1024.46
1025.38 1026.55 1027.60 1028.54 1029.35 1030.02 1030.56 1030.95 1031.20 1031.32 1031.33 1031.25 1031.11 1030.91 1030.70 1030.50 1030.31 1030.15 1030.01 1029.89 1029.77 1029.64 1029.47 1029.26 1029.00 1028.69 1028.34 1027.95 1027.55 1027.15 1026.76 1026.40 1026.09 1025.82 1025.60 1025.42 1025.27 1025.13 1024.99 1024.84 1024.65 1024.43 1024.17
1025.55 1026.77 1027.89 1028.91 1029.79 1030.53 1031.12 1031.55 1031.84 1031.98 1032.00 1031.91 1031.75 1031.53 1031.28 1031.03 1030.78 1030.55 1030.33 1030.12 1029.91 1029.68 1029.44 1029.16 1028.84 1028.49 1028.10 1027.69 1027.26 1026.83 1026.41 1026.03 1025.67 1025.36 1025.10 1024.88 1024.69 1024.54 1024.40 1024.26 1024.11 1023.93 1023.73
1025.90 1027.13 1028.28 1029.33 1030.24 1031.01 1031.63 1032.09 1032.39 1032.55 1032.57 1032.49 1032.32 1032.09 1031.82 1031.53 1031.22 1030.92 1030.61 1030.31 1030.00 1029.68 1029.33 1028.97 1028.59 1028.18 1027.75 1027.31 1026.86 1026.41 1025.97 1025.56 1025.17 1024.82 1024.51 1024.25 1024.03 1023.85 1023.70 1023.57 1023.45 1023.31 1023.16
1026.46 1027.67 1028.79 1029.81 1030.71 1031.46 1032.06 1032.51 1032.81 1032.97 1033.00 1032.92 1032.76 1032.53 1032.25 1031.93 1031.58 1031.22 1030.84 1030.44 1030.03 1029.60 1029.16 1028.71 1028.25 1027.79 1027.32 1026.84 1026.37 1025.90 1025.45 1025.01 1024.59 1024.20 1023.86 1023.56 1023.30 1023.10 1022.93 1022.80 1022.69 1022.59 1022.48
1027.21 1028.34 1029.38 1030.32 1031.15 1031.83 1032.38 1032.79 1033.06 1033.20 1033.22 1033.15 1033.00 1032.77 1032.50 1032.17 1031.80 1031.40 1030.96 1030.49 1029.99 1029.47 1028.94 1028.40 1027.87 1027.34 1026.82 1026.31 1025.82 1025.33 1024.86 1024.39 1023.95 1023.53 1023.15 1022.81 1022.52 1022.29 1022.11 1021.98 1021.88 1021.80 1021.74
1028.06 1029.07 1029.99 1030.82 1031.52 1032.11 1032.56 1032.90 1033.11 1033.22 1033.23 1033.16 1033.01 1032.80 1032.54 1032.22 1031.84 1031.42 1030.94 1030.41 1029.85 1029.26 1028.65 1028.04 1027.44 1026.85 1026.29 1025.74 1025.22 1024.70 1024.21 1023.72 1023.25 1022.80 1022.39 1022.02 1021.70 1021.44 1021.25 1021.12 1021.03 1020.97 1020.93
1028.90 1029.76 1030.54 1031.22 1031.79 1032.25 1032.60 1032.85 1032.99 1033.05 1033.03 1032.95 1032.80 1032.61 1032.36 1032.05 1031.68 1031.24 1030.74 1030.18 1029.58 1028.93 1028.27 1027.60 1026.94 1026.31 1025.70 1025.12 1024.56 1024.02 1023.50 1022.99 1022.49 1022.01 1021.57 1021.18 1020.84 1020.56 1020.36 1020.22 1020.15 1020.11 1020.10
1029.62 1030.33 1030.96 1031.49 1031.93 1032.27 1032.51 1032.66 1032.73 1032.73 1032.67 1032.56 1032.41 1032.21 1031.97 1031.66 1031.30 1030.86 1030.35 1029.77 1029.13 1028.45 1027.75 1027.04 1026.34 1025.67 1025.02 1024.41 1023.82 1023.25 1022.71 1022.17 1021.65 1021.16 1020.69 1020.28 1019.93 1019.65 1019.44 1019.31 1019.24 1019.23 1019.24
1030.15 1030.72 1031.21 1031.62 1031.94 1032.17 1032.31 1032.38 1032.37 1032.31 1032.20 1032.05 1031.87 1031.66 1031.40 1031.08 1030.70 1030.25 1029.73 1029.14 1028.49 1027.79 1027.06 1026.33 1025.60 1024.90 1024.23 1023.59 1022.97 1022.38 1021.81 1021.26 1020.72 1020.21 1019.74 1019.32 1018.97 1018.69 1018.50 1018.38 1018.33 1018.33 1018.37
1030.48 1030.93 1031.31 1031.62 1031.85 1031.99 1032.06 1032.05 1031.98 1031.85 1031.68 1031.48 1031.25 1030.99 1030.69 1030.34 1029.93 1029.46 1028.91 1028.30 1027.64 1026.92 1026.18 1025.43 1024.69 1023.97 1023.28 1022.63 1021.99 1021.39 1020.80 1020.24 1019.69 1019.18 1018.72 1018.31 1017.97 1017.71 1017.53 1017.44 1017.41 1017.44 1017.50
1030.68 1031.02 1031.32 1031.55 1031.71 1031.80 1031.80 1031.73 1031.59 1031.40 1031.16 1030.89 1030.59 1030.25 1029.89 1029.48 1029.02 1028.50 1027.92 1027.29 1026.60 1025.87 1025.12 1024.36 1023.62 1022.89 1022.19 1021.52 1020.88 1020.27 1019.68 1019.12 1018.58 1018.08 1017.64 1017.25 1016.94 1016.72 1016.58 1016.52 1016.53 1016.58 1016.67
1030.82 1031.08 1031.31 1031.49 1031.60 1031.63 1031.58 1031.45 1031.25 1030.99 1030.67 1030.31 1029.92 1029.50 1029.05 1028.56 1028.03 1027.45 1026.83 1026.15 1025.44 1024.70 1023.93 1023.17 1022.42 1021.69 1020.99 1020.32 1019.68 1019.07 1018.49 1017.94 1017.43 1016.96 1016.55 1016.21 1015.95 1015.76 1015.67 1015.65 1015.70 1015.79 1015.90
Thickness
5516 5512 5509 5507 5505 5504 5503 5502 5500 5499 5499 5499 5498 5498 5497 5496 5495 5496 5497 5499 5501 5504 5506 5510 5512 5516 5519 5521 5524 5527 5529 5531 5532 5536 5540 5542 5542 5544 5546 5548 5550 5552 5555
5505 5501 5498 5496 5494 5492 5491 5489 5488 5486 5485 5484 5483 5483 5482 5481 5481 5482 5483 5485 5487 5490 5493 5497 5500 5503 5506 5509 5512 5514 5518 5520 5520 5524 5528 5533 5535 5535 5535 5536 5538 5540 5543
5497 5492 5488 5485 5482 5480 5477 5476 5475 5473 5472 5471 5470 5469 5469 5468 5469 5469 5470 5471 5473 5476 5480 5483 5487 5490 5493 5496 5499 5501 5506 5508 5509 5510 5514 5520 5526 5524 5525 5525 5526 5527 5530
5486 5482 5478 5474 5470 5467 5464 5462 5461 5460 5459 5458 5458 5458 5458 5458 5457 5457 5458 5459 5460 5462 5466 5469 5473 5476 5479 5482 5486 5488 5491 5495 5497 5498 5499 5502 5505 5509 5513 5515 5515 5515 5517
5475 5471 5466 5462 5458 5454 5452 5450 5449 5447 5446 5445 5445 5445 5445 5444 5443 5443 5444 5446 5447 5449 5452 5455 5458 5462 5465 5468 5472 5475 5478 5481 5484 5486 5487 5489 5491 5494 5498 5504 5504 5504 5505
5462 5458 5454 5449 5445 5442 5439 5438 5437 5435 5433 5432 5431 5431 5431 5431 5430 5431 5432 5433 5434 5436 5438 5440 5444 5448 5451 5455 5458 5462 5464 5467 5470 5472 5474 5476 5479 5482 5484 5488 5491 5492 5494
5450 5446 5441 5437 5434 5430 5428 5426 5424 5423 5421 5420 5418 5418 5417 5417 5418 5418 5419 5420 5421 5423 5425 5427 5431 5434 5437 5441 5445 5448 5451 5454 5457 5459 5461 5463 5465 5467 5469 5472 5475 5478 5481
5438 5433 5429 5425 5422 5418 5416 5414 5413 5411 5409 5407 5405 5404 5404 5404 5404 5404 5405 5406 5407 5409 5411 5413 5417 5421 5424 5428 5432 5436 5439 5441 5444 5446 5448 5449 5451 5452 5455 5457 5460 5464 5468
5424 5420 5416 5412 5409 5407 5404 5402 5401 5399 5397 5395 5393 5393 5393 5392 5391 5391 5391 5392 5393 5395 5398 5401 5404 5408 5412 5415 5418 5422 5426 5428 5431 5433 5434 5436 5438 5439 5440 5443 5445 5449 5455
5411 5407 5402 5399 5396 5394 5392 5390 5389 5387 5385 5383 5382 5382 5381 5380 5379 5379 5379 5380 5381 5382 5385 5388 5391 5395 5399 5402 5406 5410 5413 5415 5417 5419 5421 5423 5425 5426 5427 5429 5431 5433 5437
5399 5394 5389 5386 5384 5382 5380 5378 5376 5374 5373 5371 5370 5370 5369 5367 5367 5366 5367 5367 5368 5370 5372 5375 5378 5382 5385 5389 5392 5396 5398 5401 5404 5406 5408 5410 5411 5413 5415 5416 5417 5419 5422
5385 5381 5377 5373 5371 5370 5368 5366 5364 5362 5361 5359 5359 5358 5357 5356 5355 5355 5355 5355 5356 5358 5360 5362 5365 5368 5372 5375 5379 5382 5384 5387 5390 5393 5395 5397 5398 5400 5401 5403 5404 5406 5408
5374 5370 5366 5363 5360 5358 5356 5354 5352 5350 5348 5347 5347 5346 5345 5345 5345 5345 5344 5345 5345 5347 5348 5350 5353 5355 5359 5362 5365 5368 5370 5373 5376 5378 5381 5382 5384 5387 5388 5390 5391 5393 5394
5364 5360 5357 5354 5350 5347 5344 5343 5341 5339 5337 5336 5336 5335 5334 5334 5333 5333 5333 5333 5334 5335 5337 5338 5340 5342 5345 5348 5351 5354 5357 5359 5362 5364 5366 5368 5370 5372 5374 5376 5378 5379 5380
5355 5351 5347 5344 5341 5337 5333 5331 5329 5328 5326 5325 5325 5324 5323 5322 5321 5321 5322 5322 5322 5323 5324 5326 5328 5329 5332 5335 5337 5340 5342 5345 5348 5350 5352 5354 5355 5357 5359 5361 5363 5364 5366
5347 5343 5338 5334 5331 5327 5323 5320 5318 5317 5316 5315 5314 5313 5312 5311 5310 5310 5310 5310 5311 5312 5312 5314 5315 5317 5319 5321 5323 5325 5328 5331 5333 5336 5338 5340 5341 5343 5344 5345 5347 5349 5351
5337 5333 5329 5325 5321 5317 5313 5311 5309 5307 5306 5304 5303 5301 5300 5300 5299 5299 5299 5299 5299 5300 5301 5302 5303 5304 5306 5307 5310 5311 5313 5316 5319 5321 5324 5325 5327 5327 5329 5331 5332 5334 5335
5325 5322 5318 5314 5311 5307 5304 5302 5300 5298 5296 5295 5293 5291 5290 5289 5288 5287 5288 5288 5288 5289 5290 5290 5291 5292 5294 5295 5296 5298 5300 5303 5305 5307 5308 5310 5312 5313 5314 5316 5318 5320 5323
5315 5311 5308 5304 5300 5297 5294 5292 5291 5289 5287 5286 5284 5282 5280 5278 5277 5277 5277 5276 5276 5277 5278 5279 5280 5281 5282 5282 5284 5284 5287 5289 5292 5293 5294 5296 5298 5299 5299 5301 5304 5307 5309
5302 5299 5296 5293 5290 5288 5285 5283 5282 5280 5278 5276 5274 5272 5270 5268 5267 5266 5265 5265 5265 5266 5266 5267 5268 5269 5270 5270 5271 5271 5274 5276 5279 5280 5282 5283 5285 5286 5285 5286 5289 5292 5294
5291 5288 5285 5283 5280 5278 5275 5274 5273 5271 5269 5266 5264 5262 5260 5258 5257 5256 5254 5254 5254 5254 5255 5256 5257 5257 5258 5258 5259 5259 5261 5263 5265 5267 5269 5270 5271 5273 5273 5274 5275 5278 5279
5280 5277 5275 5273 5270 5268 5265 5264 5263 5261 5258 5255 5253 5251 5249 5248 5247 5245 5244 5243 5243 5243 5243 5244 5246 5247 5247 5247 5248 5248 5249 5250 5252 5254 5255 5256 5257 5258 5259 5260 5262 5263 5265
5270 5267 5264 5262 5260 5258 5256 5255 5254 5250 5248 5245 5243 5241 5239 5237 5236 5235 5234 5233 5232 5233 5233 5234 5235 5236 5236 5236 5237 5237 5238 5239 5239 5241 5242 5243 5244 5245 5246 5247 5248 5250 5252
5259 5256 5254 5252 5251 5248 5246 5245 5243 5240 5238 5236 5234 5232 5230 5228 5227 5225 5225 5224 5223 5222 5222 5223 5223 5224 5225 5225 5225 5225 5226 5227 5228 5229 5230 5231 5231 5232 5233 5234 5235 5236 5238
5251 5247 5244 5243 5241 5239 5237 5235 5232 5230 5228 5226 5224 5222 5221 5219 5218 5217 5215 5214 5213 5212 5212 5212 5212 5212 5214 5213 5213 5213 5215 5215 5216 5216 5217 5218 5219 5219 5220 5221 5222 5223 5225
5242 5239 5236 5234 5233 5230 5228 5226 5223 5221 5219 5218 5216 5214 5212 5210 5209 5208 5207 5205 5203 5203 5202 5202 5202 5203 5203 5203 5203 5204 5204 5204 5204 5204 5205 5206 5205 5205 5206 5206 5208 5209 5210